Satellite-Ground Cal/Val Region Overpasses Predictions

Prediction of Satellite NPP Overpassing Cal/Val Region: PacNW

Region Location: (Latitude: 10.00, Longitude: 139.50) to (Latitude: 22.70, Longitude: 165.60).

Table of predicted overpasses for the next 14.0 days since TLE Epoch: 4/5/2025
Interval Starting Time Starting Location Ending Time Ending Location
1 04/05/2025 03:11:34 ( 10.05, 152.01) 04/05/2025 03:15:09 ( 22.67, 149.00)
2 04/05/2025 15:43:28 ( 22.66, 149.26) 04/05/2025 15:47:03 ( 10.03, 146.25)
3 04/06/2025 02:52:34 ( 10.01, 156.77) 04/06/2025 02:56:10 ( 22.68, 153.75)
4 04/06/2025 15:24:27 ( 22.70, 154.02) 04/06/2025 15:28:03 ( 10.01, 151.00)
5 04/07/2025 02:33:34 ( 10.03, 161.52) 04/07/2025 02:37:09 ( 22.64, 158.51)
6 04/07/2025 15:05:28 ( 22.68, 158.77) 04/07/2025 15:09:03 ( 10.05, 155.76)
7 04/08/2025 02:15:25 ( 12.98, 165.59) 04/08/2025 02:18:10 ( 22.67, 163.26)
8 04/08/2025 03:56:05 ( 10.04, 140.89) 04/08/2025 03:57:46 ( 15.98, 139.51)
9 04/08/2025 14:46:28 ( 22.65, 163.51) 04/08/2025 14:50:03 ( 10.03, 160.50)
10 04/09/2025 03:37:04 ( 10.01, 145.65) 04/09/2025 03:40:40 ( 22.69, 142.63)
11 04/09/2025 14:30:39 ( 11.48, 165.59) 04/09/2025 14:31:04 ( 10.01, 165.25)
12 04/09/2025 16:08:58 ( 22.69, 142.90) 04/09/2025 16:12:34 ( 10.01, 139.88)
13 04/10/2025 03:18:05 ( 10.03, 150.40) 04/10/2025 03:21:40 ( 22.65, 147.39)
14 04/10/2025 15:49:58 ( 22.66, 147.64) 04/10/2025 15:53:33 ( 10.04, 144.64)
15 04/11/2025 02:59:04 ( 10.00, 155.16) 04/11/2025 03:02:40 ( 22.68, 152.14)
16 04/11/2025 15:30:58 ( 22.69, 152.40) 04/11/2025 15:34:34 ( 10.01, 149.38)
17 04/12/2025 02:40:05 ( 10.03, 159.90) 04/12/2025 02:43:40 ( 22.65, 156.90)
18 04/12/2025 15:11:59 ( 22.66, 157.15) 04/12/2025 15:15:34 ( 10.04, 154.14)
19 04/13/2025 02:21:04 ( 10.00, 164.66) 04/13/2025 02:24:40 ( 22.68, 161.64)
20 04/13/2025 14:52:58 ( 22.69, 161.91) 04/13/2025 14:56:34 ( 10.01, 158.89)
21 04/14/2025 03:43:35 ( 10.03, 144.03) 04/14/2025 03:47:10 ( 22.65, 141.02)
22 04/14/2025 14:35:12 ( 18.37, 165.60) 04/14/2025 14:37:34 ( 10.03, 163.64)
23 04/14/2025 16:15:29 ( 22.66, 141.28) 04/14/2025 16:17:33 ( 15.38, 139.51)
24 04/15/2025 03:24:34 ( 10.01, 148.79) 04/15/2025 03:28:10 ( 22.69, 145.77)
25 04/15/2025 15:56:28 ( 22.68, 146.04) 04/15/2025 16:00:03 ( 10.06, 143.03)
26 04/16/2025 03:05:35 ( 10.05, 153.54) 04/16/2025 03:09:10 ( 22.67, 150.53)
27 04/16/2025 15:37:28 ( 22.70, 150.79) 04/16/2025 15:41:04 ( 10.02, 147.77)
28 04/17/2025 02:46:34 ( 10.03, 158.29) 04/17/2025 02:50:09 ( 22.65, 155.28)
29 04/17/2025 15:18:28 ( 22.66, 155.54) 04/17/2025 15:22:03 ( 10.04, 152.53)
30 04/18/2025 02:27:34 ( 10.01, 163.05) 04/18/2025 02:31:10 ( 22.69, 160.03)
31 04/18/2025 14:59:28 ( 22.67, 160.29) 04/18/2025 15:03:03 ( 10.05, 157.29)
